shoulder
new_line
new_line
first
second
third
Al di la della Luna; Beyond the Moon; Astrophotography; Astrofotografia; Danilo Pivato
 
 
         
         
2004

Orbital Elements

Epoch 2004 May 16.0 TT = JDT 2453141.5
T 2004 May 15.96570055 TT                                                                JPL
q   0.9619597225            (2000.0)                                P                      Q
n   1.8860127704      Peri.       1.20433           -0.00000000     +0.00000000
a  -1397.7825997      Node   210.27843          -0.00000000     +0.00000000
e   1.0006882041      Incl.      99.64263           -0.00000000     -0.00000000              
 
         
         
2004.05.09 110mm
2004.05.09 APO 250mm
2004.05.09 FFC
         
         
       
         
         
         
         
         
         

 

       
 
Since: 01/01/2004
 
       
 
Since: 01/11/2010